When you browse on this site, cookies collect data to enhance your experience and personalize the content and advertising you see.
Visit our Privacy Policy to learn more. By continuing to use the site, you agree to this use of cookies and data.
  • în România
  • Lista ţărilor
  • Pe 7 zile
  • Temperatura apei
  • Meteo pe hartă
  • Widget-uri
  • user-avatar
    Intrare

    Meteo pe oră la Vatican

    Astăzi, 3 Iunie, Miercuri

    Timp Temperatura Precipitaţii Vânt Presiune Umiditate
    00:00 +20°C° 0 mm 1 m/s 758 mmHg 71%
    01:00 +19°C° 0 mm 2 m/s 758 mmHg 67%
    02:00 +18°C° 0 mm 2 m/s 757 mmHg 68%
    03:00 +19°C° 0 mm 1 m/s 757 mmHg 68%
    04:00 +19°C° 0 mm 1 m/s 756 mmHg 69%
    05:00 +20°C° 0 mm 1 m/s 757 mmHg 66%
    06:00 +20°C° 0 mm 1 m/s 757 mmHg 63%
    07:00 +21°C° 0 mm 1 m/s 757 mmHg 60%
    08:00 +23°C° 0 mm 2 m/s 757 mmHg 55%
    09:00 +24°C° 0 mm 2 m/s 757 mmHg 50%
    10:00 +26°C° 0 mm 2 m/s 757 mmHg 45%
    11:00 +26°C° 0 mm 3 m/s 756 mmHg 47%
    12:00 +26°C° 0 mm 3 m/s 756 mmHg 48%
    13:00 +26°C° 0 mm 4 m/s 756 mmHg 49%
    14:00 +26°C° 0 mm 4 m/s 756 mmHg 49%
    15:00 +26°C° 0 mm 3 m/s 756 mmHg 48%
    16:00 +26°C° 0 mm 3 m/s 755 mmHg 48%
    17:00 +25°C° 0 mm 3 m/s 755 mmHg 53%
    18:00 +24°C° 0 mm 3 m/s 755 mmHg 58%
    19:00 +22°C° 0 mm 3 m/s 755 mmHg 63%
    20:00 +21°C° 0 mm 3 m/s 755 mmHg 67%
    21:00 +21°C° 0 mm 3 m/s 756 mmHg 71%
    22:00 +20°C° 0 mm 3 m/s 756 mmHg 75%
    23:00 +20°C° 0 mm 3 m/s 756 mmHg 76%

    Mâine, 4 Iunie, Joi

    Timp Temperatura Precipitaţii Vânt Presiune Umiditate
    00:00 +19°C° 0 mm 4 m/s 755 mmHg 77%
    01:00 +19°C° 0 mm 4 m/s 755 mmHg 78%
    02:00 +19°C° 0 mm 4 m/s 755 mmHg 79%
    03:00 +19°C° 0 mm 5 m/s 754 mmHg 79%
    04:00 +19°C° 0 mm 5 m/s 754 mmHg 80%
    05:00 +19°C° 0 mm 6 m/s 754 mmHg 78%
    06:00 +20°C° 0 mm 7 m/s 754 mmHg 76%
    07:00 +21°C° 0 mm 7 m/s 754 mmHg 74%
    08:00 +22°C° 0 mm 8 m/s 754 mmHg 70%
    09:00 +22°C° 0 mm 8 m/s 753 mmHg 66%
    10:00 +23°C° 0 mm 9 m/s 753 mmHg 62%
    11:00 +24°C° 0 mm 9 m/s 753 mmHg 61%
    12:00 +24°C° 0 mm 10 m/s 753 mmHg 60%
    13:00 +24°C° 0 mm 11 m/s 752 mmHg 59%
    14:00 +24°C° 0 mm 11 m/s 752 mmHg 61%
    15:00 +24°C° 0 mm 11 m/s 751 mmHg 63%
    16:00 +23°C° 0 mm 12 m/s 751 mmHg 65%
    17:00 +23°C° 0 mm 11 m/s 751 mmHg 68%
    18:00 +22°C° 0 mm 11 m/s 750 mmHg 70%
    19:00 +21°C° 0 mm 11 m/s 750 mmHg 73%
    20:00 +21°C° 0 mm 11 m/s 750 mmHg 73%
    21:00 +21°C° 0 mm 11 m/s 750 mmHg 73%
    22:00 +21°C° 0 mm 10 m/s 750 mmHg 73%
    23:00 +21°C° 0.3 mm 10 m/s 750 mmHg 77%

    Poimâine, 5 Iunie, Vineri

    Timp Temperatura Precipitaţii Vânt Presiune Umiditate
    00:00 +21°C° 0.3 mm 9 m/s 750 mmHg 81%
    01:00 +21°C° 0.3 mm 9 m/s 749 mmHg 84%
    02:00 +21°C° 1.1 mm 9 m/s 749 mmHg 84%
    03:00 +21°C° 1.1 mm 9 m/s 749 mmHg 83%
    04:00 +21°C° 1.1 mm 9 m/s 748 mmHg 82%
    05:00 +21°C° 0.6 mm 9 m/s 748 mmHg 79%
    06:00 +21°C° 0.6 mm 9 m/s 748 mmHg 76%
    07:00 +19°C° 0.6 mm 9 m/s 748 mmHg 73%
    08:00 +21°C° 0.3 mm 9 m/s 749 mmHg 71%
    09:00 +21°C° 0.3 mm 9 m/s 749 mmHg 69%
    10:00 +21°C° 0.3 mm 9 m/s 749 mmHg 67%
    11:00 +22°C° 0.4 mm 9 m/s 749 mmHg 66%
    12:00 +22°C° 0.4 mm 9 m/s 749 mmHg 65%
    13:00 +23°C° 0.4 mm 10 m/s 749 mmHg 64%
    14:00 +23°C° 0.1 mm 10 m/s 750 mmHg 61%
    15:00 +23°C° 0.1 mm 10 m/s 750 mmHg 59%
    16:00 +23°C° 0.1 mm 10 m/s 750 mmHg 56%
    17:00 +22°C° 0 mm 10 m/s 750 mmHg 59%
    18:00 +22°C° 0 mm 9 m/s 751 mmHg 61%
    19:00 +21°C° 0 mm 8 m/s 751 mmHg 64%
    20:00 +21°C° 0 mm 7 m/s 752 mmHg 67%
    21:00 +20°C° 0 mm 6 m/s 753 mmHg 69%
    22:00 +20°C° 0 mm 5 m/s 753 mmHg 72%
    23:00 +19°C° 0 mm 5 m/s 753 mmHg 72%

    6 Iunie, Sâmbătă

    Timp Temperatura Precipitaţii Vânt Presiune Umiditate
    00:00 +19°C° 0 mm 5 m/s 753 mmHg 73%
    01:00 +19°C° 0 mm 4 m/s 754 mmHg 73%
    02:00 +19°C° 0 mm 4 m/s 754 mmHg 74%
    03:00 +18°C° 0 mm 4 m/s 754 mmHg 74%
    04:00 +18°C° 0 mm 4 m/s 754 mmHg 75%
    05:00 +19°C° 0 mm 4 m/s 754 mmHg 73%
    06:00 +19°C° 0 mm 5 m/s 755 mmHg 71%
    07:00 +20°C° 0 mm 6 m/s 755 mmHg 69%
    08:00 +21°C° 0 mm 5 m/s 755 mmHg 67%
    09:00 +23°C° 0 mm 5 m/s 755 mmHg 64%
    10:00 +25°C° 0 mm 4 m/s 756 mmHg 62%
    11:00 +25°C° 0 mm 5 m/s 756 mmHg 60%
    12:00 +24°C° 0 mm 6 m/s 756 mmHg 58%
    13:00 +26°C° 0 mm 6 m/s 756 mmHg 57%
    14:00 +24°C° 0 mm 6 m/s 756 mmHg 58%
    15:00 +25°C° 0 mm 5 m/s 756 mmHg 59%
    16:00 +25°C° 0 mm 4 m/s 756 mmHg 61%
    17:00 +23°C° 0 mm 5 m/s 756 mmHg 65%
    18:00 +23°C° 0 mm 5 m/s 756 mmHg 69%
    19:00 +22°C° 0 mm 5 m/s 756 mmHg 74%
    20:00 +22°C° 0 mm 5 m/s 756 mmHg 76%
    21:00 +21°C° 0 mm 5 m/s 757 mmHg 78%
    22:00 +21°C° 0 mm 5 m/s 757 mmHg 80%
    23:00 +20°C° 0 mm 5 m/s 757 mmHg 80%

    7 Iunie, Duminică

    Timp Temperatura Precipitaţii Vânt Presiune Umiditate
    00:00 +20°C° 0 mm 5 m/s 757 mmHg 80%
    01:00 +20°C° 0 mm 5 m/s 757 mmHg 79%
    02:00 +20°C° 0 mm 6 m/s 756 mmHg 78%
    03:00 +20°C° 0 mm 7 m/s 756 mmHg 77%
    04:00 +20°C° 0 mm 7 m/s 756 mmHg 76%
    05:00 +20°C° 0 mm 7 m/s 756 mmHg 76%
    06:00 +21°C° 0 mm 8 m/s 756 mmHg 76%
    07:00 +21°C° 0 mm 8 m/s 757 mmHg 75%
    08:00 +22°C° 0 mm 8 m/s 757 mmHg 73%
    09:00 +23°C° 0 mm 8 m/s 757 mmHg 71%
    10:00 +24°C° 0 mm 8 m/s 757 mmHg 69%
    11:00 +24°C° 0 mm 8 m/s 757 mmHg 69%
    12:00 +24°C° 0 mm 8 m/s 757 mmHg 68%
    13:00 +26°C° 0 mm 8 m/s 757 mmHg 68%
    14:00 +24°C° 0 mm 8 m/s 757 mmHg 69%
    15:00 +24°C° 0 mm 7 m/s 757 mmHg 69%
    16:00 +24°C° 0 mm 7 m/s 757 mmHg 70%
    17:00 +24°C° 0 mm 7 m/s 757 mmHg 72%
    18:00 +23°C° 0 mm 7 m/s 756 mmHg 75%
    19:00 +23°C° 0 mm 7 m/s 756 mmHg 77%
    20:00 +22°C° 0 mm 7 m/s 757 mmHg 79%
    21:00 +22°C° 0 mm 8 m/s 757 mmHg 80%
    22:00 +21°C° 0 mm 8 m/s 757 mmHg 82%
    23:00 +21°C° 0 mm 8 m/s 757 mmHg 83%

    8 Iunie, Luni

    Timp Temperatura Precipitaţii Vânt Presiune Umiditate
    00:00 +21°C° 0 mm 8 m/s 757 mmHg 83%
    01:00 +21°C° 0 mm 8 m/s 756 mmHg 83%
    02:00 +21°C° 0 mm 8 m/s 756 mmHg 84%
    03:00 +21°C° 0 mm 8 m/s 756 mmHg 84%
    04:00 +20°C° 0 mm 7 m/s 756 mmHg 85%
    05:00 +21°C° 0.3 mm 6 m/s 756 mmHg 84%
    06:00 +21°C° 0.3 mm 6 m/s 756 mmHg 83%
    07:00 +22°C° 0.3 mm 5 m/s 756 mmHg 82%
    08:00 +23°C° 0.1 mm 5 m/s 756 mmHg 78%
    09:00 +23°C° 0.1 mm 4 m/s 756 mmHg 73%
    10:00 +25°C° 0.1 mm 4 m/s 756 mmHg 69%
    11:00 +26°C° 0.1 mm 5 m/s 756 mmHg 65%
    12:00 +26°C° 0.1 mm 5 m/s 756 mmHg 61%
    13:00 +26°C° 0.1 mm 5 m/s 756 mmHg 58%
    14:00 +26°C° 0 mm 5 m/s 756 mmHg 58%
    15:00 +25°C° 0 mm 5 m/s 756 mmHg 58%
    16:00 +25°C° 0 mm 5 m/s 756 mmHg 58%
    17:00 +25°C° 0 mm 5 m/s 756 mmHg 61%
    18:00 +23°C° 0 mm 5 m/s 756 mmHg 64%
    19:00 +22°C° 0 mm 5 m/s 757 mmHg 67%
    20:00 +22°C° 0 mm 4 m/s 757 mmHg 67%
    21:00 +21°C° 0 mm 4 m/s 758 mmHg 68%
    22:00 +21°C° 0 mm 3 m/s 758 mmHg 69%
    23:00 +20°C° 0 mm 3 m/s 758 mmHg 68%
    Arată mai mult